Year,Month,Day,Hour,Minute,Value (Times are PST for temperature in C)
2021,01,22,00,27,2.90
2021,01,22,00,28,2.90
2021,01,22,00,29,2.80
2021,01,22,00,30,2.80
2021,01,22,00,31,2.80
2021,01,22,00,32,2.80
2021,01,22,00,33,2.80
2021,01,22,00,34,2.80
2021,01,22,00,35,2.80
2021,01,22,00,36,2.80
2021,01,22,00,37,2.80
2021,01,22,00,38,2.80
2021,01,22,00,39,2.80
2021,01,22,00,40,2.70
2021,01,22,00,41,2.70
2021,01,22,00,42,2.70
2021,01,22,00,43,2.70
2021,01,22,00,44,2.70
2021,01,22,00,45,2.70
2021,01,22,00,46,2.60
2021,01,22,00,47,2.60
2021,01,22,00,48,2.60
2021,01,22,00,49,2.60
2021,01,22,00,50,2.60
2021,01,22,00,51,2.60
2021,01,22,00,52,2.60
2021,01,22,00,53,2.60
2021,01,22,00,54,2.60
2021,01,22,00,55,2.60
2021,01,22,00,56,2.70
2021,01,22,00,57,2.60
2021,01,22,00,58,2.70
2021,01,22,00,59,2.70
2021,01,22,01,00,2.70
2021,01,22,01,01,2.70
2021,01,22,01,02,2.70
2021,01,22,01,03,2.70
2021,01,22,01,04,2.70
2021,01,22,01,05,2.70
2021,01,22,01,06,2.70
2021,01,22,01,07,2.70
2021,01,22,01,08,2.60
2021,01,22,01,09,2.60
2021,01,22,01,10,2.60
2021,01,22,01,11,2.60
2021,01,22,01,12,2.50
2021,01,22,01,13,2.50
2021,01,22,01,14,2.50
2021,01,22,01,15,2.50
2021,01,22,01,16,2.50
2021,01,22,01,17,2.50
2021,01,22,01,18,2.50
2021,01,22,01,19,2.50
2021,01,22,01,20,2.50
2021,01,22,01,21,2.50
2021,01,22,01,22,2.60
2021,01,22,01,23,2.60
2021,01,22,01,24,2.60
2021,01,22,01,25,2.60
2021,01,22,01,26,2.60
2021,01,22,01,27,2.60
2021,01,22,01,28,2.60
2021,01,22,01,29,2.60
2021,01,22,01,30,2.60
2021,01,22,01,31,2.60
2021,01,22,01,32,2.60
2021,01,22,01,33,2.60
2021,01,22,01,34,2.60
2021,01,22,01,35,2.60
2021,01,22,01,36,2.60
2021,01,22,01,37,2.60
2021,01,22,01,38,2.50
2021,01,22,01,39,2.50
2021,01,22,01,40,2.50
2021,01,22,01,41,2.50
2021,01,22,01,42,2.40
2021,01,22,01,43,2.40
2021,01,22,01,44,2.40
2021,01,22,01,45,2.40
2021,01,22,01,46,2.30
2021,01,22,01,47,2.30
2021,01,22,01,48,2.30
2021,01,22,01,49,2.30
2021,01,22,01,50,2.30
2021,01,22,01,51,2.30
2021,01,22,01,52,2.20
2021,01,22,01,53,2.20
2021,01,22,01,54,2.20
2021,01,22,01,55,2.20
2021,01,22,01,56,2.20
2021,01,22,01,57,2.20
2021,01,22,01,58,2.20
2021,01,22,01,59,2.20
2021,01,22,02,00,2.20
2021,01,22,02,01,2.10
2021,01,22,02,02,2.10
2021,01,22,02,03,2.10
2021,01,22,02,04,2.10
2021,01,22,02,05,2.00
2021,01,22,02,06,2.00
2021,01,22,02,07,1.90
2021,01,22,02,08,1.90
2021,01,22,02,09,1.90
2021,01,22,02,10,1.90
2021,01,22,02,11,1.80
2021,01,22,02,12,1.80
2021,01,22,02,13,1.80
2021,01,22,02,14,1.70
2021,01,22,02,15,1.70
2021,01,22,02,16,1.70
2021,01,22,02,17,1.60
2021,01,22,02,18,1.60
2021,01,22,02,19,1.60
2021,01,22,02,20,1.50
2021,01,22,02,21,1.50
2021,01,22,02,22,1.40
2021,01,22,02,23,1.40
2021,01,22,02,24,1.40
2021,01,22,02,25,1.40
2021,01,22,02,26,1.30
2021,01,22,02,27,1.30
2021,01,22,02,28,1.20
2021,01,22,02,29,1.20
2021,01,22,02,30,1.20
2021,01,22,02,31,1.10
2021,01,22,02,32,1.10
2021,01,22,02,33,1.10
2021,01,22,02,34,1.00
2021,01,22,02,35,1.00
2021,01,22,02,36,0.90
2021,01,22,02,37,0.90
2021,01,22,02,38,0.90
2021,01,22,02,39,0.80
2021,01,22,02,40,0.80
2021,01,22,02,41,0.80
2021,01,22,02,42,0.80
2021,01,22,02,43,0.80
2021,01,22,02,44,0.70
2021,01,22,02,45,0.70
2021,01,22,02,46,0.70
2021,01,22,02,47,0.70
2021,01,22,02,48,0.70
2021,01,22,02,49,0.60
2021,01,22,02,50,0.60
2021,01,22,02,51,0.60
2021,01,22,02,52,0.60
2021,01,22,02,53,0.60
2021,01,22,02,54,0.60
2021,01,22,02,55,0.50
2021,01,22,02,56,0.50
2021,01,22,02,57,0.40
2021,01,22,02,58,0.40
2021,01,22,02,59,0.40
2021,01,22,03,00,0.40
2021,01,22,03,01,0.30
2021,01,22,03,02,0.30
2021,01,22,03,03,0.30
2021,01,22,03,04,0.30
2021,01,22,03,05,0.30
2021,01,22,03,06,0.20
2021,01,22,03,07,0.20
2021,01,22,03,08,0.20
2021,01,22,03,09,0.20
2021,01,22,03,10,0.10
2021,01,22,03,11,0.10
2021,01,22,03,12,0.10
2021,01,22,03,13,0.10
2021,01,22,03,14,0.00
2021,01,22,03,15,0.00
2021,01,22,03,16,0.00
2021,01,22,03,17,-0.10
2021,01,22,03,18,-0.10
2021,01,22,03,19,-0.10
2021,01,22,03,20,-0.10
2021,01,22,03,21,-0.20
2021,01,22,03,22,-0.20
2021,01,22,03,23,-0.20
2021,01,22,03,24,-0.20
2021,01,22,03,25,-0.20
2021,01,22,03,26,-0.20
2021,01,22,03,27,-0.20
2021,01,22,03,28,-0.20
2021,01,22,03,29,-0.20
2021,01,22,03,30,-0.30
2021,01,22,03,31,-0.30
2021,01,22,03,32,-0.30
2021,01,22,03,33,-0.30
2021,01,22,03,34,-0.40
2021,01,22,03,35,-0.40
2021,01,22,03,36,-0.40
2021,01,22,03,37,-0.40
2021,01,22,03,38,-0.40
2021,01,22,03,39,-0.40
2021,01,22,03,40,-0.50
2021,01,22,03,41,-0.50
2021,01,22,03,42,-0.50
2021,01,22,03,43,-0.50
2021,01,22,03,44,-0.50
2021,01,22,03,45,-0.60
2021,01,22,03,46,-0.60
2021,01,22,03,47,-0.60
2021,01,22,03,48,-0.60
2021,01,22,03,49,-0.60
2021,01,22,03,50,-0.60
2021,01,22,03,51,-0.60
2021,01,22,03,52,-0.70
2021,01,22,03,53,-0.70
2021,01,22,03,54,-0.70
2021,01,22,03,55,-0.70
2021,01,22,03,56,-0.70
2021,01,22,03,57,-0.70
2021,01,22,03,58,-0.70
2021,01,22,03,59,-0.80
2021,01,22,04,00,-0.80
2021,01,22,04,01,-0.80
2021,01,22,04,02,-0.80
2021,01,22,04,03,-0.80
2021,01,22,04,04,-0.80
2021,01,22,04,05,-0.80
2021,01,22,04,06,-0.80
2021,01,22,04,07,-0.80
2021,01,22,04,08,-0.80
2021,01,22,04,09,-0.80
2021,01,22,04,10,-0.80
2021,01,22,04,11,-0.80
2021,01,22,04,12,-0.80
2021,01,22,04,13,-0.80
2021,01,22,04,14,-0.90
2021,01,22,04,15,-0.90
2021,01,22,04,16,-0.90
2021,01,22,04,17,-0.90
2021,01,22,04,18,-0.90
2021,01,22,04,19,-0.90
2021,01,22,04,20,-0.90
2021,01,22,04,21,-0.90
2021,01,22,04,22,-0.90
2021,01,22,04,23,-0.90
2021,01,22,04,24,-0.90
2021,01,22,04,25,-0.90
2021,01,22,04,26,-0.90
2021,01,22,04,27,-0.90
2021,01,22,04,28,-0.90
2021,01,22,04,29,-0.90
2021,01,22,04,30,-0.90
2021,01,22,04,31,-1.00
2021,01,22,04,32,-1.00
2021,01,22,04,33,-1.00
2021,01,22,04,34,-1.00
2021,01,22,04,35,-1.00
2021,01,22,04,36,-1.00
2021,01,22,04,37,-1.00
2021,01,22,04,38,-1.00
2021,01,22,04,39,-1.00
2021,01,22,04,40,-1.00
2021,01,22,04,41,-1.00
2021,01,22,04,42,-1.00
2021,01,22,04,43,-1.00
2021,01,22,04,44,-1.00
2021,01,22,04,45,-1.00
2021,01,22,04,46,-1.00
2021,01,22,04,47,-1.00
2021,01,22,04,48,-1.00
2021,01,22,04,49,-1.10
2021,01,22,04,50,-1.10
2021,01,22,04,51,-1.10
2021,01,22,04,52,-1.10
2021,01,22,04,53,-1.10
2021,01,22,04,54,-1.10
2021,01,22,04,55,-1.10
2021,01,22,04,56,-1.10
2021,01,22,04,57,-1.10
2021,01,22,04,58,-1.10
2021,01,22,04,59,-1.10
2021,01,22,05,00,-1.20
2021,01,22,05,01,-1.20
2021,01,22,05,02,-1.20
2021,01,22,05,03,-1.20
2021,01,22,05,04,-1.20
2021,01,22,05,05,-1.20
2021,01,22,05,06,-1.20
2021,01,22,05,07,-1.20
2021,01,22,05,08,-1.20
2021,01,22,05,09,-1.20
2021,01,22,05,10,-1.20
2021,01,22,05,11,-1.20
2021,01,22,05,12,-1.20
2021,01,22,05,13,-1.20
2021,01,22,05,14,-1.20
2021,01,22,05,15,-1.20
2021,01,22,05,16,-1.20
2021,01,22,05,17,-1.20
2021,01,22,05,18,-1.20
2021,01,22,05,19,-1.20
2021,01,22,05,20,-1.20
2021,01,22,05,21,-1.20
2021,01,22,05,22,-1.20
2021,01,22,05,23,-1.20
2021,01,22,05,24,-1.20
2021,01,22,05,25,-1.20
2021,01,22,05,26,-1.20
2021,01,22,05,27,-1.20
2021,01,22,05,28,-1.20
2021,01,22,05,29,-1.20
2021,01,22,05,30,-1.20
2021,01,22,05,31,-1.20
2021,01,22,05,32,-1.20
2021,01,22,05,33,-1.20
2021,01,22,05,34,-1.20
2021,01,22,05,35,-1.30
2021,01,22,05,36,-1.30
2021,01,22,05,37,-1.30
2021,01,22,05,38,-1.30
2021,01,22,05,39,-1.30
2021,01,22,05,40,-1.30
2021,01,22,05,41,-1.40
2021,01,22,05,42,-1.40
2021,01,22,05,43,-1.40
2021,01,22,05,44,-1.40
2021,01,22,05,45,-1.40
2021,01,22,05,46,-1.40
2021,01,22,05,47,-1.40
2021,01,22,05,48,-1.40
2021,01,22,05,49,-1.50
2021,01,22,05,50,-1.50
2021,01,22,05,51,-1.40
2021,01,22,05,52,-1.50
2021,01,22,05,53,-1.40
2021,01,22,05,54,-1.50
2021,01,22,05,55,-1.50
2021,01,22,05,56,-1.50
2021,01,22,05,57,-1.40
2021,01,22,05,58,-1.40
2021,01,22,05,59,-1.40
2021,01,22,06,00,-1.40
2021,01,22,06,01,-1.40
2021,01,22,06,02,-1.40
2021,01,22,06,03,-1.50
2021,01,22,06,04,-1.60
2021,01,22,06,05,-1.60
2021,01,22,06,06,-1.60
2021,01,22,06,07,-1.60
2021,01,22,06,08,-1.60
2021,01,22,06,09,-1.60
2021,01,22,06,10,-1.60
2021,01,22,06,11,-1.60
2021,01,22,06,12,-1.60
2021,01,22,06,13,-1.60
2021,01,22,21,31,-1.00
2021,01,22,21,32,-1.00
2021,01,22,21,33,-1.00
2021,01,22,21,34,-1.00
2021,01,22,21,35,-1.10
2021,01,22,21,36,-1.10
2021,01,22,21,37,-1.10
2021,01,22,21,38,-1.10
2021,01,22,21,39,-1.10
2021,01,22,21,40,-1.10
2021,01,22,21,41,-1.10
2021,01,22,21,42,-1.10
2021,01,22,21,43,-1.20
2021,01,22,21,44,-1.20
2021,01,22,21,45,-1.20
2021,01,22,21,46,-1.20
2021,01,22,21,47,-1.20
2021,01,22,21,48,-1.20
2021,01,22,21,49,-1.10
2021,01,22,21,50,-1.10
2021,01,22,21,51,-1.10
2021,01,22,21,52,-1.10
2021,01,22,21,53,-1.10
2021,01,22,21,54,-1.10
2021,01,22,21,55,-1.10
2021,01,22,21,56,-1.00
2021,01,22,21,57,-1.00
2021,01,22,21,58,-1.00
2021,01,22,21,59,-0.90
2021,01,22,22,00,-0.90
2021,01,22,22,01,-0.80
2021,01,22,22,02,-0.80
2021,01,22,22,03,-0.80
2021,01,22,22,04,-0.80
2021,01,22,22,05,-0.80
2021,01,22,22,06,-0.80
2021,01,22,22,07,-0.70
2021,01,22,22,08,-0.70
2021,01,22,22,09,-0.70
2021,01,22,22,10,-0.70
2021,01,22,22,11,-0.70
2021,01,22,22,12,-0.70
2021,01,22,22,13,-0.70
2021,01,22,22,14,-0.70
2021,01,22,22,15,-0.60
2021,01,22,22,16,-0.60
2021,01,22,22,17,-0.50
2021,01,22,22,18,-0.40
2021,01,22,22,19,-0.40
2021,01,22,22,20,-0.30
2021,01,22,22,21,-0.30
2021,01,22,22,22,-0.20
2021,01,22,22,23,-0.20
2021,01,22,22,24,-0.20
2021,01,22,22,25,-0.20
2021,01,22,22,26,-0.20
2021,01,22,22,27,-0.20
2021,01,22,22,28,-0.20
2021,01,22,22,29,-0.20
2021,01,22,22,30,-0.20
2021,01,22,22,31,-0.20
2021,01,22,22,32,-0.20
2021,01,22,22,33,-0.20
2021,01,22,22,34,-0.20
2021,01,22,22,35,-0.20
2021,01,22,22,36,-0.20
2021,01,22,22,37,-0.10
2021,01,22,22,38,-0.10
2021,01,22,22,39,0.00
2021,01,22,22,40,0.00
2021,01,22,22,41,0.10
2021,01,22,22,42,0.10
2021,01,22,22,43,0.20
2021,01,22,22,44,0.20
2021,01,22,22,45,0.30
2021,01,22,22,46,0.30
2021,01,22,22,47,0.40
2021,01,22,22,48,0.40
2021,01,22,22,49,0.50
2021,01,22,22,50,0.50
2021,01,22,22,51,0.60
2021,01,22,22,52,0.60
2021,01,22,22,53,0.70
2021,01,22,22,54,0.70
2021,01,22,22,55,0.70
2021,01,22,22,56,0.70
2021,01,22,22,57,0.80
2021,01,22,22,58,0.90
2021,01,22,22,59,0.90
2021,01,22,23,00,0.90
2021,01,22,23,01,1.00
2021,01,22,23,02,1.10
2021,01,22,23,03,1.10
2021,01,22,23,04,1.10
2021,01,22,23,05,1.10
2021,01,22,23,06,1.20
2021,01,22,23,07,1.20
2021,01,22,23,08,1.20
2021,01,22,23,09,1.20
2021,01,22,23,10,1.20
2021,01,22,23,11,1.20
2021,01,22,23,12,1.20
2021,01,22,23,13,1.20
2021,01,22,23,14,1.20
2021,01,22,23,15,1.30
2021,01,22,23,16,1.30
2021,01,22,23,17,1.30
2021,01,22,23,18,1.30
2021,01,22,23,19,1.30
2021,01,22,23,20,1.30
2021,01,22,23,21,1.30
2021,01,22,23,22,1.30
2021,01,22,23,23,1.30
2021,01,22,23,24,1.40
2021,01,22,23,25,1.50
2021,01,22,23,26,1.50
2021,01,22,23,27,1.50
2021,01,22,23,28,1.40
2021,01,22,23,29,1.40
2021,01,22,23,30,1.50
2021,01,22,23,31,1.50
2021,01,22,23,32,1.50
2021,01,22,23,33,1.50
2021,01,22,23,34,1.50
2021,01,22,23,35,1.50
2021,01,22,23,36,1.50
2021,01,22,23,37,1.50
2021,01,22,23,38,1.50
2021,01,22,23,39,1.50
2021,01,22,23,40,1.50
2021,01,22,23,41,1.50
2021,01,22,23,42,1.40
2021,01,22,23,43,1.40
2021,01,22,23,44,1.40
2021,01,22,23,45,1.30
2021,01,22,23,46,1.30
2021,01,22,23,47,1.30
2021,01,22,23,48,1.20
2021,01,22,23,49,1.20
2021,01,22,23,50,1.20
2021,01,22,23,51,1.20
2021,01,22,23,52,1.10
2021,01,22,23,53,1.10
2021,01,22,23,54,1.10
2021,01,22,23,55,1.10
2021,01,22,23,56,1.00
2021,01,22,23,57,1.00
2021,01,22,23,58,1.00
2021,01,22,23,59,1.10
